This is the latest recevied weather packets stored in our database for station/object NE8U. If no packets are shown the sender has not sent any weather packets the latest 10 day(s).
| Time | Temp. | Humidity | Pressure | Rain* | Wind** | Luminosity | Snow |
|---|---|---|---|---|---|---|---|
| 1777858069 | 29.44° C | 15% | 1011.4 hPa | 0 mm | - | 24 W/m² | - |
| 1777857768 | 29.44° C | 15% | 1011.2 hPa | 0 mm | - | 26 W/m² | - |
| 1777857464 | 30° C | 14% | 1011.3 hPa | 0 mm | - | 28 W/m² | - |
| 1777857161 | 30° C | 14% | 1011.2 hPa | 0 mm | - | 33 W/m² | - |
| 1777856857 | 30.56° C | 14% | 1011.3 hPa | 0 mm | - | 50 W/m² | - |
| 1777856553 | 30.56° C | 14% | 1011.4 hPa | 0 mm | - | 47 W/m² | - |
| 1777856250 | 30.56° C | 14% | 1011.4 hPa | 0 mm | - | 82 W/m² | - |
| 1777855947 | 30.56° C | 14% | 1011.3 hPa | 0 mm | - | 111 W/m² | - |
| 1777855644 | 30.56° C | 13% | 1011.6 hPa | 0 mm | - | 55 W/m² | - |
| 1777855341 | 31.11° C | 13% | 1011.4 hPa | 0 mm | - | 105 W/m² | - |
| 1777855038 | 31.11° C | 13% | 1011.5 hPa | 0 mm | - | 147 W/m² | - |
| 1777854735 | 31.11° C | 13% | 1011.5 hPa | 0 mm | - | 180 W/m² | - |
| 1777854432 | 31.67° C | 13% | 1011.5 hPa | 0 mm | - | 60 W/m² | - |
| 1777854129 | 31.67° C | 13% | 1011.4 hPa | 0 mm | - | 60 W/m² | - |
| 1777853827 | 31.67° C | 13% | 1011.3 hPa | 0 mm | - | 214 W/m² | - |
| 1777853523 | 31.67° C | 13% | 1011.3 hPa | 0 mm | - | 235 W/m² | - |
| 1777853220 | 31.67° C | 12% | 1011.1 hPa | 0 mm | - | 82 W/m² | - |
| 1777852917 | 31.67° C | 12% | 1011.2 hPa | 0 mm | - | 249 W/m² | - |
| 1777852615 | 31.67° C | 12% | 1011.2 hPa | 0 mm | - | 251 W/m² | - |
| 1777852311 | 32.22° C | 13% | 1011.1 hPa | 0 mm | - | 306 W/m² | - |
| 1777852010 | 32.22° C | 13% | 1011.3 hPa | 0 mm | - | 321 W/m² | - |
| 1777851708 | 32.22° C | 13% | 1011.1 hPa | 0 mm | - | 370 W/m² | - |
| 1777851404 | 31.67° C | 13% | 1011 hPa | 0 mm | - | 326 W/m² | - |
| 1777851100 | 32.22° C | 13% | 1011.1 hPa | 0 mm | - | 380 W/m² | - |
| 1777850797 | 32.22° C | 13% | 1010.8 hPa | 0 mm | - | 349 W/m² | - |
* Rain latest hour (hover to see other rain measurements)
** Current wind speed in m/s (hover to see current wind gust speed)